AKDT,Max TemperatureF,Mean TemperatureF,Min TemperatureF,Max Dew PointF,MeanDew PointF,Min DewpointF,Max Humidity, Mean Humidity, Min Humidity, Max Sea Level PressureIn, Mean Sea Level PressureIn, Min Sea Level PressureIn, Max VisibilityMiles, Mean VisibilityMiles, Min VisibilityMiles, Max Wind SpeedMPH, Mean Wind SpeedMPH, Max Gust SpeedMPH,PrecipitationIn, CloudCover, Events, WindDirDegrees
2012-10-1,45,33,21,28,24,20,94,78,43,30.29,30.21,30.12,10,10,8,10,1,,0.00,1,,144
2012-10-2,49,36,22,27,24,20,90,66,33,30.30,30.21,30.14,10,10,10,13,3,,0.00,3,,103
2012-10-3,56,40,25,29,26,22,89,56,31,30.22,30.12,29.96,10,10,10,15,4,,0.00,1,,127
2012-10-4,55,44,33,39,34,27,86,66,50,29.95,29.89,29.86,10,10,10,8,2,,0.00,2,,331
2012-10-5,45,38,31,42,36,30,97,88,75,30.12,30.05,29.97,10,10,6,7,2,,0.03,4,Rain,167
2012-10-6,44,40,38,41,40,37,100,94,85,30.28,30.14,30.03,10,8,6,9,3,,0.26,8,Rain,238
2012-10-7,43,38,33,40,37,32,100,98,87,30.30,30.26,30.20,10,5,1,6,1,,0.14,5,Rain,345
2012-10-8,39,36,33,39,37,32,100,96,93,30.33,30.22,30.12,10,7,1,7,3,,0.57,8,Rain,319
2012-10-9,39,34,28,32,30,21,100,93,63,30.40,30.36,30.34,10,4,0,12,1,,0.00,7,Fog-Rain-Snow,36
2012-10-10,39,32,22,21,18,14,73,58,39,30.36,30.32,30.26,10,10,10,13,7,,0.00,2,,29
2012-10-11,34,24,15,14,12,8,88,66,39,30.26,30.01,29.77,10,10,10,8,4,,0.00,0,,339
2012-10-12,31,20,10,14,10,7,87,66,42,29.75,29.58,29.48,10,10,10,15,4,,0.00,5,,29
2012-10-13,30,26,21,14,11,10,66,55,43,29.47,29.44,29.40,10,10,10,20,12,,0.00,6,Snow,55
2012-10-14,31,24,16,20,15,12,85,71,52,29.38,29.29,29.24,10,10,10,12,6,,0.00,5,Snow,342
2012-10-15,23,21,19,21,19,16,93,87,80,29.31,29.25,29.19,10,5,0,8,3,,0.07,8,Snow,257
2012-10-16,20,18,16,18,15,12,93,87,79,29.73,29.54,29.31,10,5,0,5,1,,0.05,8,Snow,222
2012-10-17,20,16,12,15,13,9,93,83,74,29.93,29.85,29.73,10,10,6,9,2,,0.00,8,Snow,146
2012-10-18,21,18,15,16,15,13,89,85,78,30.12,30.02,29.94,10,10,3,5,0,,0.00,7,Snow,195
2012-10-19,20,14,8,16,11,5,93,89,81,30.40,30.25,30.12,10,10,5,6,1,,0.00,6,Snow,159
2012-10-20,22,16,11,17,13,9,93,86,79,30.62,30.51,30.40,10,10,9,6,0,,0.00,8,Snow,130
2012-10-21,21,8,-4,14,4,-9,93,81,69,30.63,30.53,30.40,10,10,10,6,3,,0.00,1,,20
2012-10-22,17,4,-9,7,-6,-14,85,78,63,30.57,30.44,30.38,10,8,1,7,1,,0.00,0,Snow,265
2012-10-23,6,-2,-11,1,-7,-17,85,81,77,30.68,30.62,30.57,10,5,0,5,1,,0.00,6,Fog-Snow,108
2012-10-24,12,-2,-15,6,-12,-22,85,78,70,30.73,30.71,30.69,10,10,10,4,0,,0.00,1,,0
2012-10-25,18,4,-9,9,-3,-15,87,79,72,30.70,30.64,30.58,10,10,10,7,2,,0.00,1,,39
2012-10-26,16,10,4,12,7,0,84,82,79,30.58,30.52,30.40,10,10,5,0,0,,0.00,8,Snow,-1
2012-10-27,24,20,16,17,14,12,89,83,75,30.40,30.28,30.15,10,10,10,0,0,,0.00,7,,-1
2012-10-28,19,10,0,16,6,-4,90,85,78,30.22,30.18,30.10,10,10,10,6,0,,0.00,3,,85
2012-10-29,17,11,5,14,10,1,93,87,79,30.10,30.00,29.94,10,4,0,6,1,,0.07,7,Snow,131
2012-10-30,9,6,2,7,3,-2,92,85,78,30.11,30.04,30.00,10,8,2,0,0,,0.01,7,Snow,-1
2012-10-31,20,10,0,10,4,-4,86,72,59,30.03,29.99,29.96,10,10,10,14,2,,0.00,1,,62